Overview Statistics Trail Chart Weather Telemetry Raw packets
 

This is the latest recevied weather packets stored in our database for station/object LU1MQF-13. If no packets are shown the sender has not sent any weather packets the latest 10 day(s).

<< 21 22 23 24 25 26 27 >>
Time Temp. Humidity Pressure Rain* Wind** Luminosity Snow
1777525015 17.22° C 40% 936.1 hPa - - - -
1777524116 17.22° C 40% 936.2 hPa - - - -
1777523215 17.22° C 40% 936.3 hPa - - - -
1777522321 17.78° C 42% 936.4 hPa - - - -
1777521420 17.22° C 40% 936.6 hPa - - - -
1777520516 17.78° C 40% 936.7 hPa - - - -
1777519616 17.78° C 41% 936.7 hPa - - - -
1777518715 18.89° C 43% 936.8 hPa - - - -
1777517815 17.78° C 39% 936.9 hPa - - - -
1777516915 17.78° C 40% 937 hPa - - - -
1777516015 17.78° C 44% 937 hPa - - - -
1777515115 17.78° C 39% 937 hPa - - - -
1777514215 17.78° C 39% 937.1 hPa - - - -
1777513314 18.89° C 39% 937 hPa - - - -
1777512415 18.89° C 43% 937.1 hPa - - - -
1777511515 18.89° C 41% 937 hPa - - - -
1777510615 18.89° C 38% 937 hPa - - - -
1777509715 18.89° C 36% 937 hPa - - - -
1777508815 18.89° C 37% 936.8 hPa - - - -
1777507915 18.89° C 35% 936.8 hPa - - - -
1777507015 18.89° C 34% 936.8 hPa - - - -
1777506115 18.89° C 32% 936.9 hPa - - - -
1777505215 20° C 32% 936.8 hPa - - - -
1777504315 20° C 32% 936.7 hPa - - - -
1777503415 20° C 31% 936.5 hPa - - - -

* Rain since midnight (hover to see other rain measurements)
** Current wind speed in m/s (hover to see current wind gust speed)